Weather History for KFAR - April, 2014

Change the Weather History Date:

Friday, April 4, 2014

  Actual Average Record
Temperature  
Mean Temperature 31 °F 38 °F  
Max Temperature 35 °F 48 °F 82 °F (1912)
Min Temperature 26 °F 28 °F -2 °F (1881)
Degree Days  
Heating Degree Days 34 27  
Month to date heating degree days 154 112  
Since 1 July heating degree days 8747 7942  
Cooling Degree Days 0 0  
Month to date cooling degree days 0 0  
Year to date cooling degree days 0 0  
Moisture  
Dew Point 27 °F    
Average Humidity 81    
Maximum Humidity 92    
Minimum Humidity 69    
Precipitation  
Precipitation T in 0.04 in 1.03 in (1892)
Month to date precipitation 0.07 0.16  
Year to date precipitation 1.67 2.77  
Snow  
Snow T in 0.10 in 2.50 in (1933)
Month to date snowfall 0.5 0.6  
Since 1 July snowfall 33.4 47.7  
Snow Depth T in    
Sea Level Pressure  
Sea Level Pressure 30.05 in    
Wind  
Wind Speed 14 mph (NNW)    
Max Wind Speed 26 mph    
Max Gust Speed 31 mph    
Visibility 9 miles    
Events Snow    
T = Trace of Precipitation, MM = Missing Value Source: NWS Daily Summary

Daily Weather History Graph

Daily Weather History Graph

Search for Another Location

Airport or City:

Trip Planner

Search our weather history database for the weather conditions in past years. The results will help you decide how hot, cold, wet, or windy it might be!

Date:

Astronomy

Apr. 04, 2014 Rise Set
Actual Time 7:00 AM CDT 8:00 PM CDT
Civil Twilight 6:29 AM CDT 8:31 PM CDT
Nautical Twilight 5:52 AM CDT 9:08 PM CDT
Astronomical Twilight 5:13 AM CDT 9:48 PM CDT
Moon 10:04 AM CDT (4/4) 12:33 AM CDT (4/4)
Length of Visible Light 14h 02m
Length of Day
13h 00m
Waxing Crescent, 25% of the Moon is Illuminated
Apr 4
Waxing Crescent
Apr 7
First Quarter
Apr 15
Full
Apr 22
Last Quarter
Apr 29
New

Hourly Weather History & Observations

Time (CDT) Temp. Windchill Dew Point Humidity Pressure Visibility Wind Dir Wind Speed Gust Speed Precip Events Conditions
12:53 AM 32.0 °F 22.1 °F 30.0 °F 92% 30.01 in 5.0 mi North 13.8 mph - N/A   Overcast
1:53 AM 30.9 °F 19.1 °F 28.9 °F 92% 30.00 in 5.0 mi NNW 18.4 mph - N/A   Overcast
2:53 AM 30.0 °F 18.3 °F 28.0 °F 92% 30.00 in 5.0 mi NNW 17.3 mph - N/A   Overcast
3:53 AM 30.0 °F 17.5 °F 27.0 °F 88% 30.00 in 5.0 mi NNW 19.6 mph - N/A   Overcast
4:53 AM 30.0 °F 17.2 °F 27.0 °F 88% 30.01 in 7.0 mi NNW 20.7 mph - N/A   Overcast
5:53 AM 28.9 °F 14.8 °F 26.1 °F 89% 30.02 in 8.0 mi NNW 24.2 mph 27.6 mph 0.00 in Snow Light Snow
6:53 AM 28.9 °F 15.4 °F 26.1 °F 89% 30.04 in 6.0 mi NNW 21.9 mph - 0.00 in Snow Light Snow
7:53 AM 28.9 °F 15.4 °F 25.0 °F 85% 30.05 in 5.0 mi NNW 21.9 mph - 0.00 in Snow Light Snow
8:53 AM 28.9 °F 16.1 °F 25.0 °F 85% 30.06 in 10.0 mi NNW 19.6 mph - 0.00 in   Overcast
9:45 AM 28.9 °F 16.9 °F 26.1 °F 89% 30.03 in 10.0 mi NNW 17.3 mph - N/A   Overcast
9:53 AM 30.0 °F 18.7 °F 25.0 °F 82% 30.07 in 10.0 mi NNW 16.1 mph - N/A   Overcast
10:53 AM 30.9 °F 19.4 °F 26.1 °F 82% 30.08 in 10.0 mi NNW 17.3 mph - N/A   Overcast
11:53 AM 32.0 °F 20.8 °F 27.0 °F 82% 30.08 in 10.0 mi NNW 17.3 mph - N/A   Overcast
12:53 PM 33.1 °F 22.6 °F 28.0 °F 82% 30.07 in 10.0 mi NNW 16.1 mph - N/A   Overcast
1:53 PM 35.1 °F 25.2 °F 28.9 °F 78% 30.06 in 10.0 mi NNW 16.1 mph - N/A   Overcast
2:25 PM 35.1 °F 25.9 °F 28.9 °F 78% 30.02 in 10.0 mi NNW 13.8 mph - N/A   Overcast
2:53 PM 34.0 °F 24.2 °F 28.9 °F 82% 30.06 in 10.0 mi NNW 15.0 mph - N/A   Overcast
3:53 PM 34.0 °F 25.5 °F 28.0 °F 79% 30.07 in 10.0 mi NW 11.5 mph - N/A   Overcast
4:53 PM 35.1 °F 29.3 °F 27.0 °F 72% 30.07 in 10.0 mi NW 6.9 mph - N/A   Overcast
5:53 PM 35.1 °F 28.6 °F 27.0 °F 72% 30.08 in 10.0 mi NW 8.1 mph - N/A   Overcast
6:53 PM 34.0 °F - 26.1 °F 73% 30.08 in 10.0 mi North - - N/A   Overcast
7:53 PM 34.0 °F 29.8 °F 25.0 °F 70% 30.09 in 10.0 mi WNW 4.6 mph - N/A   Overcast
8:53 PM 34.0 °F - 24.1 °F 67% 30.09 in 10.0 mi Calm Calm - N/A   Overcast
9:53 PM 34.0 °F - 24.1 °F 67% 30.08 in 10.0 mi Calm Calm - N/A   Overcast
10:53 PM 30.0 °F 24.1 °F 24.1 °F 79% 30.07 in 10.0 mi South 5.8 mph - N/A   Mostly Cloudy
11:37 PM 30.0 °F 25.2 °F 24.1 °F 79% 30.02 in 10.0 mi South 4.6 mph - N/A   Scattered Clouds
11:53 PM 28.0 °F 21.7 °F 23.0 °F 81% 30.06 in 10.0 mi South 5.8 mph - N/A   Clear